Main page
METAR-TAF:

METAR-TAF

Airports :

St. Paul Downtown Airport

Saint Paul, Minnesota, United States

latitude: 44-55-49N, longitude: 093-02-53W, elevation: 702 ft

Current weather observation

The report was made 42 minutes ago, at 02:53 UTC
Calm wind
Temperature 72°F
Humidity 78%
Pressure 29.87 in. Hg
Visibility: 10 miles
Broken clouds at a height of 11000 ft

METAR: KSTP 260253Z AUTO 00000KT 10SM BKN110 22/18 A2987 RMK AO2 SLP108 T02170178 53011

Time: 22:35 (03:35 UTC)


TAF: missing

Weather observations and forecasts of more than 4000 airports (METAR and TAF reports).

The available stations are represented by yellow and red dots on the map.

Hover mouse over dot to see the name of the station.

Then click to see weather observations and forecasts.

To change the map : click on the green buttons with a black cross to zoom in, on the green button with a dash to zoom out, or on the green arrows for adjacent maps.


METAR-TAF: